Hourly Data Report for September 19, 2017

All times are specified in Local Standard Time (LST). Add 1 hour to adjust for Daylight Saving Time where and when it is observed.

MISCOU ISLAND (AUT)
NEW BRUNSWICK

48°00'32.002" N
64°29'39.008" W
4.00 m
8103050
71719
WMI

Download Data

Hourly Data (September 2017)
Hourly Data Report for September 19, 2017
Temp Definition
°C
Dew Point Temp Definition
°C
Rel Hum Definition
%
Wind Dir Definition
10's deg

Wind Spd Definition
km/h
Visibility Definition
km
Stn Press Definition
kPa
Hmdx Definition


Wind Chill Definition


Weather Definition


TIME
00:00 13.6 12.6 94 7 6   102.40     LegendNANA
01:00 13.6 12.8 95 3 2   102.38     LegendNANA
02:00 13.2 12.4 96 3 3   102.35     LegendNANA
03:00 12.9 12.3 96 36 3   102.34     LegendNANA
04:00 13.2 12.5 96 11 1   102.32     LegendNANA
05:00 13.2 12.6 96 14 2   102.31     LegendNANA
06:00 13.2 12.6 96   0   102.35     LegendNANA
07:00 14.1 13.5 96 17 4   102.34     LegendNANA
08:00 15.3 14.7 96 19 6   102.33     LegendNANA
09:00 16.1 15.5 96 19 12   102.33     LegendNANA
10:00 18.8 17.3 91 21 17   102.30     LegendNANA
11:00 19.3 16.3 83 21 20   102.28     LegendNANA
12:00 19.4 16.2 82 24 13   102.25     LegendNANA
13:00 17.4 15.0 86 32 8   102.19     LegendNANA
14:00 18.7 16.0 84 23 10   102.14     LegendNANA
15:00 19.1 16.3 84 19 7   102.10     LegendNANA
16:00 19.5 16.5 83 18 20   102.04     LegendNANA
17:00 18.5 15.8 85 18 17   102.01     LegendNANA
18:00 17.7 15.4 86 18 18   101.98     LegendNANA
19:00 16.8 15.4 91 18 20   101.97     LegendNANA
20:00 16.4 15.3 93 19 16   101.96     LegendNANA
21:00 16.2 15.2 94 19 15   101.97     LegendNANA
22:00 16.3 15.4 95 19 16   101.95     LegendNANA
23:00 16.3 15.5 95 20 13   101.90     LegendNANA

Notes on Data Quality.

Legend

  • E = Estimated
  • M = Missing
  • NA = Not Available
  • ‡ = Partner data that is not subject to review by the National Climate Archives
Date modified: